TimeCST,TemperatureF,Dew PointF,Humidity,Sea Level PressureIn,VisibilityMPH,Wind Direction,Wind SpeedMPH,Gust SpeedMPH,PrecipitationIn,Events,Conditions,WindDirDegrees,DateUTC
12:13 AM,14.0,8.6,79,30.04,10.0,NW,4.6,-,N/A,,Scattered Clouds,310,2013-01-06 06:13:00
12:33 AM,14.0,8.6,79,30.04,10.0,NW,4.6,-,N/A,,Mostly Cloudy,320,2013-01-06 06:33:00
12:53 AM,14.0,8.6,79,30.04,10.0,NW,4.6,-,N/A,,Overcast,320,2013-01-06 06:53:00
1:12 AM,14.0,8.6,79,30.05,10.0,WNW,4.6,-,N/A,,Overcast,300,2013-01-06 07:12:00
1:33 AM,12.2,8.6,85,30.06,10.0,NW,4.6,-,N/A,,Overcast,310,2013-01-06 07:33:00
1:53 AM,12.2,6.8,79,30.07,10.0,WNW,5.8,-,N/A,,Overcast,300,2013-01-06 07:53:00
2:13 AM,12.2,6.8,79,30.07,10.0,WNW,5.8,-,N/A,,Overcast,300,2013-01-06 08:13:00
2:33 AM,12.2,6.8,79,30.08,10.0,WNW,4.6,-,N/A,,Overcast,300,2013-01-06 08:33:00
2:52 AM,12.2,6.8,79,30.08,10.0,WNW,4.6,-,N/A,,Overcast,300,2013-01-06 08:52:00
3:12 AM,12.2,5.0,73,30.08,10.0,WNW,3.5,-,N/A,,Overcast,300,2013-01-06 09:12:00
3:33 AM,10.4,1.4,67,30.09,10.0,Calm,Calm,-,N/A,,Scattered Clouds,0,2013-01-06 09:33:00
3:53 AM,10.4,-0.4,62,30.09,10.0,Calm,Calm,-,N/A,,Clear,0,2013-01-06 09:53:00
4:13 AM,8.6,1.4,73,30.09,10.0,Calm,Calm,-,N/A,,Clear,0,2013-01-06 10:13:00
4:33 AM,6.8,-0.4,72,30.10,10.0,Calm,Calm,-,N/A,,Clear,0,2013-01-06 10:33:00
4:53 AM,6.8,1.4,79,30.11,10.0,Calm,Calm,-,N/A,,Clear,0,2013-01-06 10:53:00
5:12 AM,6.8,1.4,79,30.10,10.0,Calm,Calm,-,N/A,,Clear,0,2013-01-06 11:12:00
5:33 AM,3.2,-0.4,85,30.11,10.0,Calm,Calm,-,N/A,,Clear,0,2013-01-06 11:33:00
5:52 AM,3.2,-0.4,85,30.12,10.0,Calm,Calm,-,N/A,,Clear,0,2013-01-06 11:52:00
6:13 AM,5.0,1.4,85,30.13,10.0,Calm,Calm,-,N/A,,Clear,0,2013-01-06 12:13:00
6:33 AM,-0.4,-2.2,92,30.14,10.0,Calm,Calm,-,N/A,,Clear,0,2013-01-06 12:33:00
6:53 AM,-0.4,-2.2,92,30.14,10.0,Calm,Calm,-,N/A,,Clear,0,2013-01-06 12:53:00
7:13 AM,-0.4,-2.2,92,30.14,10.0,Calm,Calm,-,N/A,,Clear,0,2013-01-06 13:13:00
7:32 AM,-2.2,-4.0,92,30.14,10.0,Calm,Calm,-,N/A,,Clear,0,2013-01-06 13:32:00
7:53 AM,-0.4,-4.0,85,30.16,10.0,Calm,Calm,-,N/A,,Clear,0,2013-01-06 13:53:00
8:11 AM,-2.2,-5.8,85,30.16,10.0,Calm,Calm,-,N/A,,Clear,0,2013-01-06 14:11:00
8:33 AM,-2.2,-5.8,85,30.17,7.0,Calm,Calm,-,N/A,,Clear,0,2013-01-06 14:33:00
8:53 AM,-0.4,-5.8,78,30.17,10.0,Calm,Calm,-,N/A,,Clear,0,2013-01-06 14:53:00
9:33 AM,3.2,1.4,92,30.17,10.0,Calm,Calm,-,N/A,Snow,Light Snow,0,2013-01-06 15:33:00
9:53 AM,6.8,3.2,85,30.18,10.0,Calm,Calm,-,N/A,,Clear,0,2013-01-06 15:53:00
10:12 AM,10.4,5.0,79,30.17,10.0,Calm,Calm,-,N/A,,Clear,0,2013-01-06 16:12:00
10:32 AM,12.2,6.8,79,30.18,10.0,Calm,Calm,-,N/A,,Clear,0,2013-01-06 16:32:00
10:53 AM,12.2,6.8,79,30.17,10.0,Calm,Calm,-,N/A,,Clear,0,2013-01-06 16:53:00
11:13 AM,15.8,6.8,68,30.17,10.0,Calm,Calm,-,N/A,,Clear,0,2013-01-06 17:13:00
11:32 AM,15.8,6.8,68,30.16,10.0,Calm,Calm,-,N/A,,Clear,0,2013-01-06 17:32:00
11:52 AM,15.8,6.8,68,30.16,10.0,Calm,Calm,-,N/A,,Clear,0,2013-01-06 17:52:00
12:13 PM,17.6,8.6,68,30.15,10.0,Calm,Calm,-,N/A,,Clear,0,2013-01-06 18:13:00
12:32 PM,15.8,8.6,73,30.13,10.0,SSE,3.5,-,N/A,,Clear,150,2013-01-06 18:32:00
12:53 PM,17.6,8.6,68,30.13,10.0,Calm,Calm,-,N/A,,Clear,0,2013-01-06 18:53:00
1:13 PM,17.6,8.6,68,30.13,10.0,SW,3.5,-,N/A,,Clear,220,2013-01-06 19:13:00
1:32 PM,17.6,8.6,68,30.12,10.0,South,3.5,-,N/A,,Clear,170,2013-01-06 19:32:00
1:53 PM,19.4,8.6,63,30.12,10.0,South,4.6,-,N/A,,Clear,170,2013-01-06 19:53:00
2:12 PM,19.4,8.6,63,30.12,10.0,SSE,4.6,-,N/A,,Clear,150,2013-01-06 20:12:00
2:52 PM,19.4,10.4,68,30.11,10.0,South,5.8,-,N/A,,Clear,170,2013-01-06 20:52:00
3:13 PM,21.2,10.4,63,30.11,10.0,South,6.9,-,N/A,,Clear,180,2013-01-06 21:13:00
3:33 PM,19.4,10.4,68,30.11,10.0,South,8.1,-,N/A,,Clear,180,2013-01-06 21:33:00
3:53 PM,19.4,10.4,68,30.11,10.0,South,8.1,-,N/A,,Clear,180,2013-01-06 21:53:00
4:12 PM,19.4,10.4,68,30.10,10.0,South,8.1,-,N/A,,Clear,170,2013-01-06 22:12:00
4:53 PM,15.8,8.6,73,30.08,10.0,SSE,3.5,-,N/A,,Clear,160,2013-01-06 22:53:00
5:13 PM,15.8,8.6,73,30.08,10.0,SSE,5.8,-,N/A,,Clear,160,2013-01-06 23:13:00
5:33 PM,15.8,8.6,73,30.08,10.0,South,5.8,-,N/A,,Clear,180,2013-01-06 23:33:00
5:52 PM,15.8,8.6,73,30.08,10.0,South,5.8,-,N/A,,Clear,170,2013-01-06 23:52:00
6:13 PM,15.8,8.6,73,30.07,10.0,South,6.9,-,N/A,,Clear,170,2013-01-07 00:13:00
6:32 PM,14.0,8.6,79,30.07,7.0,South,5.8,-,N/A,,Clear,170,2013-01-07 00:32:00
6:52 PM,12.2,6.8,79,30.06,10.0,SSE,5.8,-,N/A,,Clear,160,2013-01-07 00:52:00
7:33 PM,10.4,6.8,85,30.03,10.0,SSE,6.9,-,N/A,,Clear,150,2013-01-07 01:33:00
8:13 PM,10.4,6.8,85,30.01,10.0,SSE,8.1,-,N/A,,Clear,160,2013-01-07 02:13:00
8:33 PM,10.4,6.8,85,29.99,10.0,SSE,6.9,-,N/A,,Clear,150,2013-01-07 02:33:00
8:50 PM,10.4,6.8,85,29.98,10.0,SSE,8.1,-,N/A,,Clear,150,2013-01-07 02:50:00
9:52 PM,10.4,8.6,92,29.92,10.0,SSE,11.5,-,N/A,,Clear,150,2013-01-07 03:52:00
10:13 PM,10.4,8.6,92,29.92,10.0,South,8.1,-,N/A,,Clear,170,2013-01-07 04:13:00
10:33 PM,10.4,8.6,92,29.91,10.0,SSE,10.4,-,N/A,,Clear,160,2013-01-07 04:33:00
10:53 PM,10.4,8.6,92,29.91,7.0,SSE,9.2,-,N/A,,Clear,160,2013-01-07 04:53:00
11:32 PM,10.4,8.6,92,29.87,10.0,SSE,10.4,-,N/A,,Clear,150,2013-01-07 05:32:00
11:52 PM,12.2,10.4,92,29.86,10.0,SSE,9.2,-,N/A,,Clear,160,2013-01-07 05:52:00